Simultaneous Nadir Overpasses (SNOs) Predictions

Prediction of SNOs between LANDSAT-8 and METOP-B Satellite Orbit:

Table of predicted SNOs for the next 14.0 days since TLE Epoch: 6/18/2016
Index Date (LANDSAT-8) Time (LANDSAT-8) Lat,Lon (LANDSAT-8) SZA (LANDSAT-8 ) Date (METOP-B) Time (METOP-B) Lat,Lon (METOP-B) SZA (METOP-B ) Distance(km) Time Diff (sec)
1 06/18/2016 14:31:25 -81.07,-178.65 120.27 06/18/2016 14:30:41 -81.07,-178.70 120.29 0.84 44
2 06/18/2016 15:20:50 81.10, -10.54 59.80 06/18/2016 15:21:20 81.10, -10.60 59.81 0.95 30
3 06/21/2016 10:05:42 -81.07,-112.15 120.29 06/21/2016 10:05:04 -81.07,-112.31 120.33 2.76 38
4 06/21/2016 10:55:07 81.10, 55.93 59.78 06/21/2016 10:55:43 81.10, 55.78 59.77 2.70 36
5 06/24/2016 05:39:59 -81.08, -45.70 120.27 06/24/2016 05:39:26 -81.08, -45.57 120.27 2.34 33
6 06/24/2016 06:29:24 81.10, 122.36 59.80 06/24/2016 06:30:05 81.11, 122.50 59.83 2.58 41
7 06/27/2016 01:14:15 -81.07, 20.71 120.20 06/27/2016 01:13:48 -81.08, 20.78 120.20 1.32 27
8 06/27/2016 02:03:40 81.10,-171.26 59.87 06/27/2016 02:04:27 81.10,-171.17 59.90 1.62 47
9 06/29/2016 20:48:31 -81.09, 87.43 120.02 06/29/2016 20:48:10 -81.09, 87.48 120.03 0.87 21




NCC Satellite Simultaneous Nadir Overpasses (SNOs) Prediction Service
